Wind_Speed
48 51 54 57 60 61 61 61 59 57 53 50 49 48 48 46 43 39 37 36 34 34 34 34 35 35 36 37 40 43 47 50 53 57 59 60 62 63
54 57 60 61 62 62 61 60 59 57 54 48 44 43 44 43 40 36 33 32 31 32 32 33 34 34 35 36 38 41 43 47 51 54 58 60 61 61
60 61 63 63 62 60 58 56 55 54 51 44 40 39 40 40 37 32 29 28 28 29 30 32 33 33 34 36 37 39 42 44 48 52 55 58 61 61
63 63 63 62 59 57 54 52 50 48 44 39 36 35 36 35 31 28 25 25 25 27 29 31 33 33 34 35 37 38 40 42 45 48 51 54 57 59
64 63 61 58 55 53 50 47 44 41 39 36 32 31 31 30 26 23 22 22 23 25 27 29 31 33 34 35 36 38 40 41 42 43 46 49 52 55
61 58 55 52 49 46 43 41 38 36 34 31 27 26 26 25 21 20 20 21 22 23 25 28 30 32 34 35 37 38 39 40 41 42 43 46 49 52
53 50 48 45 42 39 37 34 32 30 28 25 22 21 21 20 18 18 18 19 20 22 23 25 27 29 32 34 36 37 39 40 42 43 42 43 46 50
46 44 42 39 35 31 28 27 26 24 22 20 17 17 16 16 16 16 16 17 18 19 20 22 24 26 28 29 30 32 33 36 39 41 43 43 44 47
40 38 35 32 27 23 22 22 22 19 17 15 14 13 12 12 12 12 13 13 14 14 16 18 20 21 20 20 22 24 26 28 31 37 42 43 43 45
35 32 30 27 23 21 21 20 17 14 12 11 11 10 9 8 8 8 9 9 10 10 11 12 12 12 13 14 14 15 17 20 24 31 39 41 42 45
33 30 26 23 20 19 17 15 12 9 9 11 10 8 7 7 6 6 6 5 5 5 6 5 5 8 9 10 8 5 5 12 23 31 36 40 42 46
30 26 22 19 17 15 13 10 8 9 10 11 10 8 7 7 7 6 5 3 1 0 2 4 7 10 9 8 7 6 10 19 27 33 37 39 42 46
25 21 17 14 11 9 6 6 8 10 11 11 10 10 10 10 9 8 5 4 4 5 7 8 9 11 11 11 11 13 18 24 30 35 39 41 44 46
18 14 11 7 4 3 5 8 10 12 13 12 12 12 12 12 11 8 7 7 9 11 12 11 12 14 14 15 16 19 24 28 33 37 41 44 46 48
14 10 6 2 3 6 9 12 13 14 14 14 13 13 13 12 10 8 9 12 15 16 16 16 16 18 19 20 21 24 27 32 36 40 44 48 50 51
11 7 5 6 9 12 14 15 16 17 17 16 16 15 14 12 10 10 12 16 18 19 19 18 18 20 22 24 26 28 32 37 41 45 48 50 50 50
10 7 8 11 15 17 17 18 18 19 19 18 17 16 13 11 10 12 16 19 21 22 21 20 20 24 26 27 29 32 35 38 41 44 46 46 46 47
11 10 12 15 18 19 20 20 19 19 18 17 16 14 12 11 12 15 19 21 23 24 23 22 23 24 26 28 29 30 31 33 34 34 35 38 40 40
12 12 15 18 20 21 21 20 18 17 16 14 13 12 13 13 15 18 20 22 23 24 24 24 24 25 26 26 28 29 29 30 32 32 33 35 35 35
12 13 16 19 21 21 20 19 17 15 14 13 13 13 14 15 18 21 21 23 23 23 22 23 25 27 27 25 24 25 27 28 29 29 30 30 30 30
13 14 17 19 20 20 19 18 16 14 13 13 13 14 15 17 21 23 23 24 24 23 22 21 22 24 26 25 22 21 21 22 24 24 24 25 26 26
14 15 17 18 19 19 18 16 14 13 13 13 14 15 17 20 23 25 26 26 25 24 22 20 20 20 22 23 22 20 19 19 18 19 19 21 25 25
15 16 16 17 17 16 15 14 14 13 13 13 14 16 18 21 24 25 25 24 23 23 22 20 18 17 17 19 20 20 20 20 19 19 20 20 22 24
Wind_Direction
297 296 296 296 295 295 294 293 292 291 291 290 286 282 277 273 270 270 268 264 259 256 254 252 250 248 244 241 239 238 237 237 237 237 236 235 235 235
298 297 296 296 295 294 293 292 291 291 291 290 283 277 272 269 268 269 267 262 256 253 251 250 248 247 245 243 242 241 241 242 241 240 239 238 237 236
298 297 296 295 294 293 291 290 289 290 290 288 281 273 267 265 265 266 263 256 251 249 247 247 246 245 245 245 246 246 246 245 244 242 241 239 236 235
299 298 297 296 294 291 290 289 288 289 288 285 279 270 263 261 262 262 257 250 249 249 247 246 245 245 246 248 249 249 249 247 246 243 240 236 233 231
301 300 298 296 293 291 289 287 286 286 285 283 275 264 258 257 257 255 251 249 250 249 249 248 247 248 249 251 251 251 250 248 246 243 238 233 229 227
303 302 300 297 294 291 288 286 285 285 284 280 269 258 253 252 249 248 249 250 251 252 254 252 251 251 252 254 255 255 254 250 246 241 236 231 225 222
307 306 303 301 297 292 288 285 283 283 281 274 264 251 247 245 243 245 247 251 253 256 257 255 255 257 259 260 259 258 256 252 246 239 232 227 222 217
310 308 306 304 300 294 289 286 283 280 275 268 254 241 239 239 240 241 245 250 254 256 258 260 261 263 265 266 264 262 258 252 244 234 226 221 216 212
311 309 308 306 301 295 291 290 285 275 266 252 235 230 230 232 232 235 241 246 250 256 262 267 271 271 273 276 274 269 259 249 237 225 216 211 207 203
312 310 309 305 299 295 294 290 282 266 245 224 213 212 213 215 216 223 230 235 245 258 270 278 284 288 294 299 291 279 257 237 219 206 199 197 195 192
312 309 306 302 297 295 292 282 268 237 207 194 186 187 191 194 198 200 205 218 242 266 285 298 330 341 333 326 322 304 232 192 181 178 180 183 183 182
313 308 304 299 294 292 284 264 234 195 178 169 169 172 171 170 166 161 163 175 209 343 50 54 33 19 14 18 37 82 131 145 153 159 165 169 172 175
317 312 306 300 294 284 259 214 182 168 159 156 158 157 155 153 148 141 133 120 106 102 92 73 49 41 45 53 73 106 128 137 145 151 156 161 165 169
327 323 317 308 289 239 186 164 155 151 149 150 151 150 150 147 139 128 116 108 109 108 100 84 69 64 67 71 84 108 125 134 141 146 150 154 158 161
341 343 346 4 128 142 144 142 142 142 143 145 148 148 146 140 129 119 112 111 113 112 107 99 86 83 86 90 94 107 121 130 136 141 145 148 152 154
357 10 48 98 120 126 130 132 135 138 141 143 144 142 139 133 123 118 118 118 118 117 113 107 99 98 102 107 110 116 122 128 133 137 140 141 143 145
24 54 89 112 119 123 126 128 132 136 137 138 138 138 134 128 122 121 122 123 124 122 119 115 113 110 111 114 117 122 127 130 132 135 137 139 143 149
46 76 104 116 121 124 125 128 133 135 135 134 132 130 128 126 125 126 126 126 126 124 124 123 119 114 114 117 120 123 128 130 134 138 142 148 153 158
58 88 110 120 123 126 127 130 133 132 130 128 128 127 126 126 128 130 130 128 126 124 127 129 127 122 120 122 124 124 127 134 139 143 147 152 158 162
68 95 115 123 126 128 129 130 130 127 123 121 122 125 127 128 132 133 131 130 125 124 128 132 132 129 126 127 130 132 135 141 146 148 150 154 159 164
77 100 119 128 131 132 133 131 127 124 119 116 118 124 129 132 135 134 131 130 127 125 127 131 133 134 133 133 137 142 146 150 153 157 161 164 166 169
83 103 120 130 133 135 135 133 128 123 121 118 119 123 129 135 138 135 131 129 127 127 126 126 129 133 135 136 138 143 149 156 163 168 173 177 174 172
89 104 119 131 136 137 137 135 130 126 125 123 121 123 130 137 141 140 136 133 132 130 129 128 130 133 138 141 142 146 150 153 158 162 166 170 172 172
Height
5631 5626 5620 5615 5609 5603 5598 5593 5590 5588 5586 5578 5572 5568 5566 5566 5566 5566 5567 5567 5568 5569 5571 5572 5574 5577 5580 5584 5589 5594 5600 5606 5612 5618 5625 5633 5641 5650
5617 5611 5604 5598 5592 5585 5580 5575 5571 5569 5568 5564 5559 5555 5552 5552 5553 5554 5555 5555 5556 5558 5560 5562 5564 5566 5570 5573 5577 5582 5587 5592 5597 5603 5610 5617 5625 5634
5601 5594 5588 5581 5575 5568 5563 5559 5555 5551 5550 5549 5545 5542 5540 5540 5541 5543 5544 5545 5546 5548 5550 5552 5554 5556 5559 5562 5566 5569 5573 5577 5582 5587 5593 5601 5609 5619
5583 5576 5569 5563 5557 5551 5547 5543 5539 5536 5534 5534 5533 5530 5529 5529 5531 5533 5534 5536 5537 5539 5541 5542 5544 5547 5549 5551 5554 5557 5560 5563 5567 5571 5577 5585 5594 5602
5565 5558 5551 5545 5540 5535 5531 5528 5525 5523 5521 5521 5520 5519 5519 5520 5523 5524 5526 5528 5529 5531 5532 5533 5535 5537 5539 5540 5542 5544 5546 5549 5553 5557 5562 5569 5578 5588
5548 5540 5534 5528 5524 5520 5517 5514 5513 5511 5509 5508 5509 5510 5511 5512 5515 5517 5519 5520 5522 5523 5524 5525 5526 5527 5528 5529 5530 5531 5533 5535 5538 5543 5548 5556 5564 5575
5533 5525 5519 5514 5510 5507 5504 5503 5501 5500 5499 5499 5500 5502 5504 5506 5508 5511 5513 5514 5515 5516 5517 5517 5518 5518 5518 5518 5517 5517 5518 5520 5523 5529 5536 5543 5553 5564
5520 5513 5507 5502 5498 5496 5494 5493 5492 5492 5492 5492 5494 5496 5498 5501 5503 5505 5507 5509 5509 5510 5510 5510 5510 5509 5508 5506 5505 5503 5503 5504 5508 5514 5523 5532 5542 5554
5509 5503 5498 5493 5490 5488 5487 5486 5485 5485 5485 5487 5489 5491 5494 5496 5499 5501 5502 5504 5505 5505 5505 5504 5503 5501 5499 5497 5494 5491 5490 5490 5493 5500 5510 5523 5535 5547
5500 5495 5490 5486 5484 5483 5482 5480 5479 5480 5481 5483 5486 5489 5492 5494 5496 5498 5499 5501 5501 5502 5501 5500 5498 5495 5492 5489 5485 5481 5479 5479 5482 5490 5502 5516 5529 5542
5492 5487 5483 5480 5478 5477 5476 5475 5476 5477 5479 5482 5485 5488 5490 5492 5494 5496 5498 5499 5500 5499 5498 5497 5495 5492 5489 5485 5480 5477 5474 5474 5478 5487 5499 5513 5527 5541
5484 5480 5477 5475 5473 5472 5472 5472 5474 5476 5479 5482 5485 5487 5490 5492 5494 5496 5498 5499 5499 5499 5498 5497 5495 5491 5488 5484 5480 5478 5477 5478 5482 5491 5502 5515 5528 5542
5477 5474 5471 5470 5469 5469 5470 5471 5473 5476 5479 5482 5485 5488 5490 5493 5495 5497 5499 5499 5500 5500 5499 5498 5496 5493 5490 5487 5484 5483 5483 5486 5491 5498 5507 5519 5532 5547
5473 5470 5468 5467 5467 5468 5469 5472 5474 5477 5480 5484 5487 5490 5492 5495 5497 5499 5500 5501 5501 5502 5502 5502 5500 5498 5495 5493 5492 5491 5492 5495 5501 5507 5515 5525 5538 5551
5471 5469 5467 5467 5467 5469 5471 5474 5476 5480 5483 5486 5489 5492 5495 5497 5499 5501 5502 5504 5504 5505 5506 5507 5507 5505 5503 5503 5503 5503 5504 5506 5511 5518 5526 5535 5545 5557
5471 5469 5468 5468 5470 5472 5474 5477 5480 5482 5486 5489 5492 5495 5498 5500 5502 5504 5505 5507 5508 5510 5512 5513 5514 5513 5513 5514 5515 5516 5518 5521 5524 5531 5539 5547 5556 5567
5473 5471 5471 5472 5473 5476 5478 5481 5484 5487 5490 5493 5496 5499 5501 5504 5505 5507 5508 5511 5513 5515 5518 5520 5521 5522 5523 5524 5526 5528 5531 5534 5539 5544 5552 5559 5567 5577
5475 5474 5475 5476 5478 5480 5483 5486 5489 5492 5495 5498 5501 5503 5505 5507 5509 5510 5513 5515 5518 5520 5523 5527 5529 5531 5532 5534 5536 5540 5544 5548 5552 5558 5564 5572 5580 5588
5479 5478 5479 5480 5483 5485 5488 5492 5495 5498 5500 5503 5505 5507 5509 5511 5513 5515 5518 5520 5523 5526 5529 5533 5535 5538 5541 5544 5546 5549 5553 5558 5563 5569 5575 5583 5590 5597
5483 5483 5484 5486 5488 5491 5494 5497 5500 5503 5505 5507 5509 5511 5513 5515 5517 5520 5523 5526 5529 5532 5536 5539 5541 5543 5547 5551 5555 5558 5562 5567 5572 5577 5583 5589 5595 5602
5488 5487 5489 5491 5493 5496 5499 5502 5504 5507 5509 5511 5513 5515 5517 5520 5522 5526 5529 5532 5535 5538 5542 5545 5548 5550 5553 5557 5562 5566 5570 5574 5578 5583 5588 5593 5598 5604
5492 5492 5494 5496 5499 5501 5504 5507 5509 5511 5514 5516 5518 5519 5522 5524 5528 5531 5534 5538 5541 5544 5548 5551 5554 5557 5559 5562 5566 5570 5574 5579 5583 5587 5592 5596 5600 5605
5497 5497 5499 5501 5504 5506 5509 5511 5514 5516 5518 5520 5522 5524 5526 5529 5533 5536 5540 5543 5547 5550 5553 5556 5560 5562 5565 5567 5570 5573 5577 5581 5585 5589 5594 5598 5602 5606